Weather reports worldwide

Advertisment
Le Luc, France (7675): temperature & dewpoint: 07.08.2020 02:00:00 - 13.08.2020 02:00:00 (CEST)Le Luc, France (7675): temperature 5cm: 07.08.2020 02:00:00 - 13.08.2020 02:00:00 (CEST)Le Luc, France (7675): wind speed & gusts: 07.08.2020 02:00:00 - 13.08.2020 02:00:00 (CEST)Le Luc, France (7675): wind direction: 07.08.2020 02:00:00 - 13.08.2020 02:00:00 (CEST)Le Luc, France (7675): reduced air pressure: 07.08.2020 02:00:00 - 13.08.2020 02:00:00 (CEST)Le Luc, France (7675): visibility: 07.08.2020 02:00:00 - 13.08.2020 02:00:00 (CEST)Le Luc, France (7675): sunshine duration: 07.08.2020 02:00:00 - 13.08.2020 02:00:00 (CEST)Le Luc, France (7675): precipitation: 07.08.2020 02:00:00 - 13.08.2020 02:00:00 (CEST)
Date & Time tt [°C] td [°C] tt 5cm [°C] ff [km/h] ff [kn] fx [km/h] fx [kn] dd ppp [hPa] vv [km] sd [min] rr [mm]
13.08.2020 02:00:00 - - - - - - - - - - - -
13.08.2020 01:00:00 - - - - - - - - - - - -
13.08.2020 00:00:00 - - - - - - - - - - - -
12.08.2020 23:00:00 - - - - - - - - - - - -
12.08.2020 22:00:00 - - - - - - - - - - - -
12.08.2020 21:00:00 - - - - - - - - - - - -
12.08.2020 20:00:00 - - - - - - - - - - - -
12.08.2020 19:00:00 - - - - - - - - - - - -
12.08.2020 18:00:00 - - - - - - - - - - - -
12.08.2020 17:00:00 - - - - - - - - - - - -
12.08.2020 16:00:00 - - - - - - - - - - - -
12.08.2020 15:00:00 - - - - - - - - - - - -
12.08.2020 14:00:00 - - - - - - - - - - - -
12.08.2020 13:00:00 - - - - - - - - - - - -
12.08.2020 12:00:00 - - - - - - - - - - - -
12.08.2020 11:00:00 - - - - - - - - - - - -
12.08.2020 10:00:00 - - - - - - - - - - - -
12.08.2020 09:00:00 - - - - - - - - - - - -
12.08.2020 08:00:00 - - - - - - - - - - - -
12.08.2020 07:00:00 - - - - - - - - - - - -
12.08.2020 06:00:00 - - - - - - - - - - - -
12.08.2020 05:00:00 - - - - - - - - - - - -
12.08.2020 04:00:00 - - - - - - - - - - - -
12.08.2020 03:00:00 - - - - - - - - - - - -
12.08.2020 02:00:00 - - - - - - - - - - - -
12.08.2020 01:00:00 - - - - - - - - - - - -
12.08.2020 00:00:00 - - - - - - - - - - - -
11.08.2020 23:00:00 - - - - - - - - - - - -
11.08.2020 22:00:00 - - - - - - - - - - - -
11.08.2020 21:00:00 - - - - - - - - - - - -
11.08.2020 20:00:00 - - - - - - - - - - - -
11.08.2020 19:00:00 - - - - - - - - - - - -
11.08.2020 18:00:00 - - - - - - - - - - - -
11.08.2020 17:00:00 - - - - - - - - - - - -
11.08.2020 16:00:00 - - - - - - - - - - - -
11.08.2020 15:00:00 - - - - - - - - - - - -
11.08.2020 14:00:00 - - - - - - - - - - - -
11.08.2020 13:00:00 - - - - - - - - - - - -
11.08.2020 12:00:00 - - - - - - - - - - - -
11.08.2020 11:00:00 - - - - - - - - - - - -
11.08.2020 10:00:00 - - - - - - - - - - - -
11.08.2020 09:00:00 - - - - - - - - - - - -
11.08.2020 08:00:00 - - - - - - - - - - - -
11.08.2020 07:00:00 - - - - - - - - - - - -
11.08.2020 06:00:00 - - - - - - - - - - - -
11.08.2020 05:00:00 - - - - - - - - - - - -
11.08.2020 04:00:00 - - - - - - - - - - - -
11.08.2020 03:00:00 - - - - - - - - - - - -
11.08.2020 02:00:00 - - - - - - - - - - - -
11.08.2020 01:00:00 - - - - - - - - - - - -
11.08.2020 00:00:00 - - - - - - - - - - - -
10.08.2020 23:00:00 - - - - - - - - - - - -
10.08.2020 22:00:00 - - - - - - - - - - - -
10.08.2020 21:00:00 - - - - - - - - - - - -
10.08.2020 20:00:00 - - - - - - - - - - - -
10.08.2020 19:00:00 - - - - - - - - - - - -
10.08.2020 18:00:00 - - - - - - - - - - - -
10.08.2020 17:00:00 - - - - - - - - - - - -
10.08.2020 16:00:00 - - - - - - - - - - - -
10.08.2020 15:00:00 - - - - - - - - - - - -
10.08.2020 14:00:00 - - - - - - - - - - - -
10.08.2020 13:00:00 - - - - - - - - - - - -
10.08.2020 12:00:00 - - - - - - - - - - - -
10.08.2020 11:00:00 - - - - - - - - - - - -
10.08.2020 10:00:00 - - - - - - - - - - - -
10.08.2020 09:00:00 - - - - - - - - - - - -
10.08.2020 08:00:00 20,6 12,3 17,3 0 0 5 3 N 1015,1 39 42 0,0
10.08.2020 07:00:00 18,8 11,8 15,9 0 0 5 3 N 1014,9 47 0 0,0
10.08.2020 06:00:00 18,2 11,5 16,1 0 0 5 3 N 1014,6 49 0 0,0
10.08.2020 05:00:00 18,8 11,6 17,1 0 0 8 4 N 1014,4 50 0 0,0
10.08.2020 04:00:00 20,3 12,0 18,3 4 2 5 3 W 1014,2 50 0 0,0
10.08.2020 03:00:00 21,3 12,7 19,0 3 1 4 2 E 1014,0 20 0 0,0
10.08.2020 02:00:00 23,4 12,1 21,4 4 2 11 6 WSW 1014,0 50 0 0,0
10.08.2020 01:00:00 23,3 12,6 20,5 4 2 9 5 W 1014,2 50 0 0,0
10.08.2020 00:00:00 26,1 12,2 24,5 9 5 15 8 WSW 1014,2 50 0 0,0
09.08.2020 23:00:00 26,0 12,4 24,5 8 4 11 6 SW 1014,4 50 0 0,0
09.08.2020 22:00:00 28,6 12,5 25,9 3 2 11 6 W 1014,6 20 0 0,0
09.08.2020 21:00:00 30,6 12,5 28,8 7 4 13 7 W 1014,1 50 0 0,0
09.08.2020 20:00:00 32,3 12,5 31,7 11 6 26 14 SW 1013,6 46 47 0,0
09.08.2020 19:00:00 34,2 13,1 37,2 13 7 29 15 SW 1013,5 45 60 0,0
09.08.2020 18:00:00 35,3 14,6 41,1 13 7 30 16 SW 1013,4 34 60 0,0
09.08.2020 17:00:00 36,3 15,4 43,1 12 6 31 17 SW 1013,3 40 60 0,0
09.08.2020 16:00:00 36,4 16,0 43,0 24 13 40 21 SE 1013,6 33 60 0,0
09.08.2020 15:00:00 36,4 16,6 40,1 16 8 34 18 SSE 1014,0 35 50 0,0
09.08.2020 14:00:00 36,7 14,7 45,2 10 6 23 12 WNW 1014,5 33 60 0,0
09.08.2020 13:00:00 35,8 16,0 44,3 4 2 16 9 SSW 1015,3 34 60 0,0
09.08.2020 12:00:00 34,5 16,4 41,7 6 3 11 6 E 1015,9 38 60 0,0
09.08.2020 11:00:00 32,2 16,1 36,9 4 2 12 6 E 1016,6 20 60 0,0
09.08.2020 10:00:00 27,7 14,3 31,8 2 1 5 3 WSW 1017,1 20 60 0,0
09.08.2020 09:00:00 24,9 14,4 25,3 2 1 5 3 E 1017,3 43 60 0,0
09.08.2020 08:00:00 21,3 14,2 16,8 4 2 6 4 E 1017,7 46 60 0,0
09.08.2020 07:00:00 17,6 13,1 16,3 0 0 4 2 N 1017,4 49 5 0,0
09.08.2020 06:00:00 18,2 13,3 16,5 2 1 3 2 NNW 1017,4 50 0 0,0
09.08.2020 05:00:00 19,4 13,8 17,1 0 0 4 2 N 1017,2 50 0 0,0
09.08.2020 04:00:00 19,6 13,5 17,9 2 1 4 2 E 1017,3 50 0 0,0
09.08.2020 03:00:00 20,6 14,3 18,5 0 0 5 3 N 1017,4 50 0 0,0
09.08.2020 02:00:00 20,9 14,1 19,2 3 1 6 4 ESE 1017,5 50 0 0,0
09.08.2020 01:00:00 21,9 14,0 19,6 0 0 3 2 N 1017,5 50 0 0,0
09.08.2020 00:00:00 23,5 14,5 21,4 2 1 4 2 E 1017,4 50 0 0,0
08.08.2020 23:00:00 25,6 14,1 23,4 3 2 7 4 E 1017,1 50 0 0,0
08.08.2020 22:00:00 27,3 16,0 24,9 2 1 10 5 W 1016,9 40 0 0,0
08.08.2020 21:00:00 29,1 16,3 27,4 6 3 11 6 NE 1016,3 50 22 0,0
08.08.2020 20:00:00 33,2 10,5 32,7 8 4 15 8 ESE 1015,8 47 60 0,0
08.08.2020 19:00:00 34,5 11,6 39,3 7 4 24 13 SSW 1015,3 40 60 0,0
08.08.2020 18:00:00 35,2 12,2 41,3 13 7 28 15 SSE 1015,3 39 60 0,0
08.08.2020 17:00:00 35,8 11,4 42,5 17 9 30 16 ESE 1015,3 41 60 0,0
08.08.2020 16:00:00 36,2 11,1 43,5 15 8 36 19 SE 1015,5 35 60 0,0
08.08.2020 15:00:00 36,1 12,3 43,3 19 11 29 16 SE 1015,9 40 60 0,0
08.08.2020 14:00:00 35,7 13,8 44,1 18 10 32 18 SSE 1016,2 40 60 0,0
08.08.2020 13:00:00 35,6 12,5 43,3 5 3 16 9 W 1016,9 19 60 0,0
08.08.2020 12:00:00 34,0 12,4 41,9 3 2 15 8 ESE 1017,7 37 60 0,0
08.08.2020 11:00:00 31,4 12,7 37,2 3 1 8 4 W 1018,5 41 60 0,0
08.08.2020 10:00:00 27,8 10,9 32,1 2 1 5 3 SSE 1019,0 39 60 0,0
08.08.2020 09:00:00 24,5 10,4 25,2 0 0 5 3 N 1019,4 43 60 0,0
08.08.2020 08:00:00 20,7 10,2 15,7 3 2 7 4 NE 1019,3 50 60 0,0
08.08.2020 07:00:00 17,1 10,9 14,0 0 0 5 3 N 1019,3 50 6 0,0
08.08.2020 06:00:00 17,5 10,6 14,7 2 1 4 2 SSE 1019,1 50 0 0,0
08.08.2020 05:00:00 17,9 11,0 15,7 2 1 4 2 ESE 1018,9 50 0 0,0
08.08.2020 04:00:00 18,4 11,9 16,5 3 1 5 3 N 1019,3 50 0 0,0
08.08.2020 03:00:00 19,4 11,9 17,3 2 1 6 3 E 1019,4 50 0 0,0
08.08.2020 02:00:00 20,5 12,2 18,1 0 0 4 2 N 1019,6 50 0 0,0
08.08.2020 01:00:00 22,1 12,6 19,2 4 2 8 4 WSW 1019,6 50 0 0,0
08.08.2020 00:00:00 22,6 12,2 21,0 2 1 7 4 E 1019,2 50 0 0,0
07.08.2020 23:00:00 25,3 12,5 22,7 2 1 6 3 SSW 1018,9 50 0 0,0
07.08.2020 22:00:00 27,0 15,4 24,6 3 2 17 9 NW 1018,1 50 0 0,0
07.08.2020 21:00:00 29,6 12,5 27,7 5 3 10 5 W 1017,2 50 25 0,0
07.08.2020 20:00:00 31,8 13,1 31,1 7 4 24 13 WSW 1016,5 49 60 0,0
07.08.2020 19:00:00 33,2 13,3 37,6 11 6 30 16 SW 1016,3 20 60 0,0
07.08.2020 18:00:00 33,6 13,1 39,5 16 9 31 17 WSW 1016,5 41 60 0,0
07.08.2020 17:00:00 34,1 14,6 40,9 19 10 32 17 WSW 1016,4 41 60 0,0
07.08.2020 16:00:00 34,4 15,3 42,1 14 8 31 17 SW 1016,3 47 60 0,0
07.08.2020 15:00:00 34,9 14,8 42,3 13 7 43 23 SSE 1016,4 20 60 0,0
07.08.2020 14:00:00 35,1 12,1 43,6 10 6 18 10 E 1016,6 40 60 0,0
07.08.2020 13:00:00 34,0 11,8 43,0 7 4 14 8 NE 1017,2 41 60 0,0
07.08.2020 12:00:00 33,1 12,1 39,8 5 3 10 5 NW 1017,8 34 60 0,0
07.08.2020 11:00:00 29,9 10,4 36,7 3 1 5 3 SW 1018,4 38 60 0,0
07.08.2020 10:00:00 26,7 11,6 31,3 2 1 6 4 ESE 1018,7 34 60 0,0
07.08.2020 09:00:00 23,2 11,3 24,2 0 0 5 3 N 1019,0 47 60 0,0
07.08.2020 08:00:00 19,3 10,8 14,3 0 0 3 2 N 1019,1 20 60 0,0
07.08.2020 07:00:00 15,2 9,5 12,7 0 0 3 1 N 1018,9 50 7 0,0
07.08.2020 06:00:00 15,7 10,0 13,0 2 1 4 2 WSW 1018,4 50 0 0,0
07.08.2020 05:00:00 15,5 9,2 14,1 2 1 5 3 ESE 1018,2 50 0 0,0
07.08.2020 04:00:00 16,8 9,5 14,6 0 0 7 4 N 1018,1 20 0 0,0
07.08.2020 03:00:00 18,1 10,2 15,4 5 3 7 4 W 1018,2 50 0 0,0
07.08.2020 02:00:00 18,6 9,6 16,1 0 0 2 1 N 1018,4 50 0 0,0

tt = temperature
td = dewpoint
tt 5cm = temperature 5cm
ff = wind speed
fx = gusts
dd = wind direction
ppp = reduced air pressure
vv = visibility
sd = sunshine duration
rr = precipitation

Next stations